{"data":{"norad_id":65605,"intl_designator":"2025-207P","name":"STARLINK-35171","alt_names":[],"object_type":"PAYLOAD","status":"ACTIVE","operator":null,"country":"US","launch_date":"2025-09-13","launch_site_code":"AFWTR","launch_vehicle":null,"mission":null,"orbit_class":"UNKNOWN","rcs_meters":null,"size_class":null,"mass_kg":null,"dimensions":null,"purposes":["comms"],"wikipedia_slug":null,"has_3d_model":false,"image_url":null,"decayed_at":null,"tle_current":{"epoch":"2026-05-25T02:55:52.673952Z","epoch_age_seconds":71414,"freshness":"FRESH","line1":"1 65605U 25207P   26145.12213743 -.00060710  00000+0 -42549-2 0  9990","line2":"2 65605  97.4504 213.6569 0000685 139.1255 221.0024 15.05515823 39604","mean_motion":15.05515823,"eccentricity":6.85e-5,"inclination_deg":97.4504,"raan_deg":213.6569,"arg_perigee_deg":139.1255,"mean_anomaly_deg":221.0024,"bstar":-0.0042549,"rev_number":3960,"period_min":95.648280675692,"perigee_km":549.44818715781,"apogee_km":550.39733134483,"semimajor_km":6928.0597592513,"source":"CELESTRAK","updated_at":"2026-05-25T13:38:20.854746Z"}}}